Weather History for KLEE - January, 2014

Change the Weather History Date:

Wednesday, January 15, 2014

  Actual Average Record
Temperature  
Mean Temperature 56 °F -  
Max Temperature 63 °F 66 °F 81 °F (1960)
Min Temperature 48 °F 43 °F 24 °F (1978)
Degree Days  
Heating Degree Days 10    
Growing Degree Days 6 (Base 50)    
Moisture  
Dew Point 46 °F    
Average Humidity 71    
Maximum Humidity 96    
Minimum Humidity 41    
Precipitation  
Precipitation 0.00 in - - ()
Sea Level Pressure  
Sea Level Pressure 30.00 in    
Wind  
Wind Speed 4 mph (WNW)    
Max Wind Speed 10 mph    
Max Gust Speed 20 mph    
Visibility 10 miles    
Events Rain    
Averages and records for this station are not official NWS values.
T = Trace of Precipitation, MM = Missing Value Source: NWS Daily Summary

Daily Weather History Graph

Daily Weather History Graph

Search for Another Location

Airport or City:

Trip Planner

Search our weather history database for the weather conditions in past years. The results will help you decide how hot, cold, wet, or windy it might be!

Date:

Astronomy

Jan. 15, 2014 Rise Set
Actual Time 7:21 AM EST 5:52 PM EST
Civil Twilight 6:55 AM EST 6:17 PM EST
Nautical Twilight 6:26 AM EST 6:46 PM EST
Astronomical Twilight 5:58 AM EST 7:15 PM EST
Moon 5:44 PM EST (1/15) 6:40 AM EST (1/15)
Length of Visible Light 11h 21m
Length of Day
10h 30m
Full, 100% of the Moon is Illuminated
Jan 15
Full
Jan 15
Full
Jan 24
Last Quarter
Jan 30
New
Feb 6
First Quarter

Hourly Weather History & Observations

Time (EST) Temp. Dew Point Humidity Pressure Visibility Wind Dir Wind Speed Gust Speed Precip Events Conditions
12:53 AM 55.0 °F 53.1 °F 93% 30.01 in 10.0 mi NW 3.5 mph - N/A   Clear
1:53 AM 53.1 °F 52.0 °F 96% 30.01 in 10.0 mi Calm Calm - N/A   Clear
2:53 AM 53.1 °F 50.0 °F 89% 30.01 in 10.0 mi North 4.6 mph - N/A   Clear
3:53 AM 53.1 °F 48.0 °F 83% 30.00 in 10.0 mi North 4.6 mph - N/A   Clear
4:53 AM 51.1 °F 46.9 °F 86% 30.00 in 10.0 mi North 4.6 mph - N/A   Clear
5:53 AM 48.0 °F 46.0 °F 93% 30.01 in 10.0 mi North 3.5 mph - N/A   Clear
6:53 AM 48.9 °F 46.0 °F 90% 30.01 in 10.0 mi Calm Calm - N/A   Clear
7:53 AM 48.9 °F 46.0 °F 90% 30.04 in 10.0 mi NW 3.5 mph - N/A   Clear
8:53 AM 54.0 °F 48.0 °F 80% 30.06 in 10.0 mi NW 4.6 mph - N/A   Clear
9:53 AM 57.9 °F 46.9 °F 67% 30.08 in 10.0 mi Calm Calm - N/A   Clear
10:53 AM 61.0 °F 45.0 °F 56% 30.06 in 10.0 mi NNW 5.8 mph - N/A   Clear
11:53 AM 62.1 °F 43.0 °F 50% 30.04 in 10.0 mi West 6.9 mph - N/A   Clear
12:53 PM 63.0 °F 43.0 °F 48% 29.99 in 10.0 mi Variable 5.8 mph - N/A   Clear
1:53 PM 63.0 °F 42.1 °F 46% 29.99 in 10.0 mi West 6.9 mph 19.6 mph N/A   Clear
2:53 PM 63.0 °F 41.0 °F 45% 29.97 in 10.0 mi WSW 10.4 mph 16.1 mph N/A   Clear
3:53 PM 63.0 °F 39.0 °F 41% 29.96 in 10.0 mi West 10.4 mph 18.4 mph N/A   Clear
4:53 PM 61.0 °F 43.0 °F 52% 29.97 in 10.0 mi West 9.2 mph 18.4 mph N/A   Clear
5:53 PM 59.0 °F 44.1 °F 58% 29.97 in 10.0 mi West 6.9 mph - N/A   Clear
6:53 PM 57.9 °F 44.1 °F 60% 29.97 in 10.0 mi West 5.8 mph - N/A   Clear
7:53 PM 55.9 °F 46.0 °F 69% 29.98 in 10.0 mi SW 3.5 mph - N/A   Clear
8:53 PM 55.0 °F 46.9 °F 74% 29.98 in 10.0 mi WSW 3.5 mph - N/A   Clear
9:53 PM 55.0 °F 46.0 °F 72% 29.99 in 10.0 mi Calm Calm - N/A   Clear
10:53 PM 55.0 °F 46.9 °F 74% 29.97 in 10.0 mi Calm Calm - N/A   Overcast
11:53 PM 53.1 °F 48.9 °F 86% 30.00 in 7.0 mi WSW 5.8 mph - 0.00 in Rain Light Rain